Astrocast 0.1 (43798 NORAD) Tracking and Keplerian Element Data

This shows tracking and keplerian element data for the satellite.

Feedback or suggestion? Click here.




ElementValue
Catalog43798
NameAstrocast 0.1
Epoch Orbit4228
Epoch Day255.73632132
Epoch Year2019
RAAN326.8789
Inclination97.7383
Eccentricity0.0013078
Argument of Perigee32.6674
Mean Anonmoly327.5353
Mean Motion14.95752373
Decay Rate2.49E-06
L11 43798U 18099AS 19255.73632132 .00000249 00000-0 27545-4 0 9999
L22 43798 97.7383 326.8789 0013078 32.6674 327.5353 14.95752373 42280

Live tracking and technical data element details for Astrocast 0.1 (NORAD 43798). Astrocast 0.1 can be tracked NOW for your location showing map with azimuth and elevation plus other details from your city location.

Track the satellite on the map from your city or location and see movement details for azimuth, elevation, latitude, longitude, range, height, and movement on the map or in text.







IsCatalogInMostPopularTable: catalog: 43798, numindb: 237
Update: records affected: 1



GetName: 43798 Astrocast 0.1

Hit Count: updated at: Tue, 17 Sep 2019 20:37:13 GMT